Regional Weather Roundup
Issued by NWS State College, PA

Home | Current Version | Previous Version | Graphics & Text | Print | Product List | Glossary Off
Versions: 1 2 3 4 5 6 7 8 9 10 11 12 13 14 15 16 17 18 19 20 21 22 23 24 25 26 27 28 29 30 31 32 33 34 35 36 37 38 39 40 41 42 43 44 45 46 47 48 49 50

000
ASUS41 KCTP 221610
RWRCTP

REGIONAL WEATHER ROUNDUP
NATIONAL WEATHER SERVICE STATE COLLEGE PA
1200 PM EDT SAT JUL 22 2017

Note: "fair" indicates few or no clouds below 12,000 feet with no
significant weather and/or obstructions to visibility.

* = STATION THAT DOES NOT REPORT PRECIPITATION /E.G. RAIN...SNOW...ETC/
    THUNDER OR FOG.

PAZ002>004-007>009-013>016-020>023-029>032-221700-
WESTERN PENNSYLVANIA

CITY           SKY/WX    TMP DP  RH WIND       PRES   REMARKS
ERIE           PTSUNNY   76  70  82 SE9       29.84F
MEADVILLE      LGT RAIN  72  72 100 E6        29.88F FOG
FRANKLIN*      CLOUDY    72  70  94 E6        29.89F
NEW CASTLE     LGT RAIN  73  72  94 VRB7      29.87F
BEAVER COUNTY  DRIZZLE   72  72 100 S10       29.89S
BUTLER*        CLOUDY    73  70  88 S12       29.89S
PITTSBURGH INT LGT RAIN  73  72  96 S8        29.90S
PITTSBURGH     CLOUDY    73  70  90 S12       29.89F FOG
INDIANA*       PTSUNNY   75  73  94 S7        29.95F FOG
LATROBE        LGT RAIN  73  73 100 SW12      29.94F FOG
WASHINGTON CO* CLOUDY    70  68  94 S6        29.91F
$$

PAZ004>006-010>012-017>019-024>028-033>037-041-042-045-046-049>053-221700-
CENTRAL PENNSYLVANIA

CITY           SKY/WX    TMP DP  RH WIND       PRES   REMARKS
BRADFORD       CLOUDY    73  67  81 VRB5      29.95F
DUBOIS         CLOUDY    74  68  81 S6        29.92F HAZE
CLEARFIELD     CLOUDY    76  71  85 CALM      29.94F
JOHNSTOWN      LGT RAIN  74  70  87 SW8       29.98F
ALTOONA        CLOUDY    80  72  76 SW8       29.95S
STATE COLLEGE  PTSUNNY   81  70  69 CALM      29.92F
WILLIAMSPORT   CLOUDY    84  69  60 SW6       29.88F
SELINSGROVE    CLOUDY    83  69  62 CALM      29.90F
FT INDIANTOWN  SUNNY     85  69  57 S5        29.90F
CAPITAL CITY   SUNNY     87  67  51 E5        29.88F
HARRISBURG     CLOUDY    87  69  54 SE6       29.88F
YORK           MOSUNNY   86  71  60 SW5       29.90F
$$

PAZ038>040-043-044-047-048-054-055-060>062-067>071-221700-
EASTERN PENNSYLVANIA

CITY           SKY/WX    TMP DP  RH WIND       PRES   REMARKS
SCRANTON       SUNNY     83  67  58 VRB6      29.91F
MOUNT POCONO   SUNNY     78  59  51 S5        29.96F
ALLENTOWN      SUNNY     86  65  49 N6        29.90F
QUAKERTOWN*    SUNNY     86  68  54 CALM      29.91F
READING        MOSUNNY   87  71  58 VRB3      29.88F
LANCASTER      SUNNY     88  72  58 E5        29.89F
COATESVILLE    SUNNY     86  72  62 E3        29.92F
POTTSTOWN      SUNNY     85  68  56 CALM      29.91F
BLUE BELL      SUNNY     84  70  61 CALM      29.90F
DOYLESTOWN     SUNNY     84  68  58 CALM      29.89F
WILLOW GROVE   NOT AVBL
NORTH PHILA    SUNNY     89  67  47 VRB3      29.89F
PHILADELPHIA   PTSUNNY   90  68  48 CALM      29.87F
$$




USA.gov is the U.S. government's official web portal to all federal, state and local government web resources and services.